Theta_e
351 352 355 356 355 355 355 356 354 353 352 340 339 343 344 348 347 347 348 348 347 346 346 344 346 347 347 345 346 347 345 346 347 345 345 346 346 348 350 348 345 346 347 341 341 343 341 341 342 342 341 341 341 342 341 341 340 340 340 340 340 340 341 341 341 341 341 340 337 336 338 339 338 341 346 346 345 344 344 344 344 344 344 344 345 345 344 345 345 343 341 339 339 339 339 339 338
351 352 354 354 355 356 355 357 352 344 342 337 340 345 345 349 348 349 348 347 345 343 344 344 344 346 346 345 345 344 344 345 347 348 347 345 346 347 349 348 345 346 346 341 342 345 342 341 342 342 340 340 341 342 341 342 342 341 341 341 341 341 341 342 342 342 341 337 335 337 339 341 342 343 346 346 345 344 344 344 344 344 345 345 345 345 344 344 344 343 342 340 339 338 338 337 336
351 351 353 354 355 356 355 356 350 336 334 336 341 348 349 349 349 349 346 345 344 343 345 345 346 347 346 345 345 344 344 344 346 347 346 345 346 347 347 347 346 346 345 343 346 347 343 341 342 342 341 341 341 341 342 343 343 341 340 341 342 342 342 343 343 342 340 337 339 342 344 346 346 345 345 345 346 345 344 344 344 344 345 345 345 344 343 344 344 343 343 342 340 339 338 337 335
351 352 355 355 355 356 356 353 349 334 332 337 341 348 350 349 349 346 345 344 343 345 346 346 348 349 347 344 344 345 345 345 345 345 345 344 345 346 347 347 346 346 346 345 347 348 344 341 341 342 342 342 340 341 341 343 343 341 340 341 342 342 343 344 343 342 340 339 342 345 345 345 345 345 345 346 346 346 345 344 344 344 345 345 345 344 343 343 343 343 343 343 342 340 338 336 335
352 355 355 356 355 355 356 352 347 336 335 340 343 348 349 348 347 345 345 344 345 347 347 346 346 347 347 345 344 344 345 345 344 344 345 344 345 346 347 347 347 347 346 346 347 347 343 341 342 341 342 342 341 341 341 342 342 342 341 343 344 344 344 345 345 343 340 341 343 344 344 345 344 344 345 345 345 345 345 344 344 345 345 344 344 344 343 343 343 343 343 342 341 340 337 334 331
354 357 356 357 356 355 356 348 341 339 342 347 347 348 348 347 347 346 345 345 347 347 347 346 344 345 345 345 345 344 345 345 345 346 345 345 345 346 348 349 349 348 347 347 348 346 342 340 340 340 341 342 342 342 342 342 342 343 343 343 344 345 345 345 345 342 341 342 344 345 345 345 344 343 344 345 344 343 344 345 345 344 344 343 343 343 343 343 343 343 342 342 341 339 334 329 324
355 356 355 357 357 354 355 344 338 343 347 350 349 348 348 348 348 346 346 346 346 347 347 345 344 344 344 345 345 345 345 345 346 346 345 345 346 348 349 350 350 348 347 347 346 344 341 338 339 340 340 341 341 341 341 341 342 343 344 344 345 345 344 343 343 342 343 343 344 345 346 345 344 343 343 344 343 342 343 344 345 343 343 342 342 343 344 343 343 343 342 342 341 338 330 324 321
355 354 354 356 356 354 353 343 340 348 348 349 351 350 349 349 348 348 347 346 347 347 346 344 344 345 344 344 345 346 346 346 346 346 346 346 347 349 349 349 349 347 347 347 346 343 338 336 340 341 341 341 339 340 341 341 342 344 345 344 345 345 342 342 344 344 343 343 344 345 346 345 345 344 342 342 343 343 343 344 343 342 341 341 341 342 343 343 343 343 342 342 341 338 330 322 321
356 355 355 355 356 354 350 343 344 350 352 351 351 351 351 350 349 349 348 348 348 347 347 345 345 345 346 345 346 347 347 347 346 346 346 346 347 348 348 348 346 345 347 347 345 344 339 339 341 341 342 342 340 341 342 341 343 344 345 345 344 344 343 343 345 344 342 342 343 344 345 345 344 344 343 342 343 342 343 344 343 341 341 341 341 341 342 343 343 342 341 341 339 336 329 323 322
355 355 356 355 356 352 340 339 344 350 353 352 352 353 352 351 350 351 349 348 349 348 347 346 345 344 344 344 346 346 346 346 345 345 346 346 346 346 347 346 345 344 345 345 344 343 341 341 341 341 343 342 341 342 342 342 343 344 345 346 344 344 343 343 343 342 342 342 342 343 345 344 344 345 344 343 343 341 342 343 343 342 342 341 340 341 342 342 342 341 339 337 334 331 328 324 323
355 354 355 356 355 346 335 338 345 350 353 352 354 355 354 353 352 352 350 350 349 348 347 345 343 343 344 346 347 346 345 345 345 346 345 345 345 345 346 345 346 345 344 343 343 342 341 341 341 342 343 343 343 343 343 343 345 345 345 345 344 344 343 341 342 341 341 342 342 343 344 344 345 345 345 344 344 343 342 343 343 342 342 341 341 341 341 341 341 339 336 333 332 331 330 327 325
356 357 359 359 353 345 338 341 346 352 352 351 354 354 353 353 352 352 351 350 349 347 347 345 343 342 344 346 346 345 345 345 346 346 345 344 344 344 345 346 347 347 345 343 343 342 342 341 342 343 343 343 343 343 344 344 345 345 344 344 343 342 342 341 341 341 341 342 342 342 343 344 344 344 344 344 344 344 343 342 342 342 342 341 341 341 341 340 339 337 335 334 334 333 331 329 326
355 358 359 357 353 347 343 343 347 351 351 351 353 353 353 352 352 352 351 350 348 348 347 344 342 341 343 345 345 345 345 345 346 345 344 343 343 344 346 348 348 347 346 344 344 344 342 341 342 344 343 343 342 343 344 344 344 343 343 342 342 341 341 341 340 341 342 342 342 342 342 342 344 345 344 344 344 343 343 342 342 343 342 342 341 341 341 340 338 335 334 335 335 333 331 329 327
354 356 357 354 351 348 344 343 345 347 349 352 352 353 353 353 351 350 350 350 349 348 346 343 343 343 343 345 344 344 346 346 345 344 343 341 343 345 347 349 348 348 347 347 348 346 343 341 343 344 343 343 342 342 343 344 344 343 343 342 342 342 342 342 341 341 342 343 342 342 342 342 343 345 344 344 343 342 341 341 341 342 341 341 340 341 341 340 337 334 334 336 336 335 333 331 328
354 355 356 354 348 346 344 342 343 347 349 351 352 353 353 352 350 350 351 351 349 346 345 343 343 342 341 342 343 345 346 345 344 342 342 342 344 347 348 349 348 348 348 349 349 348 347 345 344 345 343 343 343 344 343 342 344 344 344 343 342 342 343 343 342 343 343 344 343 342 341 342 343 343 343 343 343 343 342 342 341 341 341 340 339 340 341 340 336 334 336 338 336 334 334 333 329
356 355 356 355 346 340 344 342 342 347 350 350 352 352 351 352 352 352 351 349 346 345 345 343 343 342 340 341 344 346 346 344 342 342 342 344 346 348 348 348 348 348 348 349 349 349 349 346 344 346 345 344 346 347 344 342 343 343 343 343 342 342 343 343 344 344 344 344 343 342 341 342 342 342 342 341 341 342 342 341 341 341 339 337 336 336 339 338 335 335 337 337 335 333 332 330 328
357 356 356 354 350 344 346 345 342 346 349 351 352 350 350 351 351 351 349 347 345 345 344 342 342 341 341 343 345 346 344 342 342 342 344 346 347 348 348 348 347 347 347 348 348 348 349 347 344 344 345 346 347 345 344 343 343 343 343 343 342 342 343 343 344 344 343 343 342 342 342 342 342 342 340 340 341 341 341 342 340 337 334 333 334 335 338 336 332 334 335 335 334 333 333 331 330
357 358 358 355 354 354 353 348 344 347 349 351 351 349 349 349 349 348 348 347 346 346 344 343 343 342 343 345 345 344 342 341 342 343 345 346 347 348 347 347 347 347 347 347 348 348 349 348 346 344 344 347 346 344 344 343 343 343 343 343 342 342 343 343 344 343 342 342 342 341 341 341 341 341 340 341 341 341 341 339 335 331 330 333 336 338 338 335 332 332 334 336 337 339 341 340 338
354 357 360 358 355 356 357 353 347 348 349 350 351 349 347 348 349 349 349 347 346 345 344 344 344 343 343 344 343 342 341 342 344 345 345 347 347 347 347 346 346 347 347 347 347 348 349 349 349 346 345 347 346 345 344 342 343 344 342 342 343 342 343 343 343 342 341 342 341 340 339 339 339 339 340 340 341 340 338 333 329 328 332 335 337 338 338 335 331 331 335 339 342 343 344 345 345
353 355 359 357 353 355 359 358 351 348 350 351 352 350 348 348 348 350 348 346 347 345 344 345 343 343 342 342 342 341 342 344 345 345 345 346 346 347 347 347 346 346 347 347 348 348 349 348 349 348 345 346 346 344 344 343 343 343 341 341 342 343 343 343 342 340 340 340 338 336 336 336 335 337 338 338 339 336 331 327 328 332 335 336 334 334 335 333 332 334 338 341 342 344 345 345 346
353 354 355 356 354 356 360 359 353 348 350 352 352 351 349 348 348 349 348 346 347 345 344 344 343 342 342 342 342 343 345 345 345 345 345 345 346 346 346 347 347 347 347 348 348 348 347 347 348 348 344 346 347 345 344 343 343 344 342 341 342 342 342 342 341 339 340 340 338 335 333 332 332 334 337 338 336 330 328 329 334 336 335 334 333 335 337 335 335 339 342 343 343 344 345 346 347
352 353 355 356 354 355 359 359 354 349 350 352 352 351 349 349 349 348 348 346 345 345 344 344 343 342 342 343 344 345 345 345 345 346 345 345 345 346 346 348 348 348 348 350 349 348 346 346 347 346 344 347 347 345 345 344 343 344 343 342 342 342 344 344 341 339 340 339 340 338 333 333 333 335 337 338 335 333 336 339 340 339 338 339 340 343 343 341 342 343 344 344 344 343 344 345 347
351 352 355 358 355 355 359 359 356 352 351 351 352 351 349 350 351 348 348 347 345 345 344 344 344 343 343 344 345 346 345 345 346 346 345 345 345 345 346 347 348 349 349 350 350 349 348 347 347 347 347 349 348 345 345 344 344 344 343 342 342 343 345 346 343 342 341 338 339 339 334 333 335 336 338 338 336 338 342 342 342 342 344 345 344 345 345 344 344 344 344 345 345 343 343 345 344
351 352 355 357 356 356 358 358 356 353 351 352 351 350 351 350 349 347 346 347 345 345 345 344 344 343 344 345 345 345 345 346 345 345 345 345 345 345 346 347 349 350 350 350 350 351 350 347 347 346 347 350 349 346 346 345 343 344 343 342 343 343 344 347 348 346 345 343 342 339 335 336 338 338 339 340 340 341 341 341 343 344 347 346 345 344 345 345 344 344 345 346 347 345 344 345 344
352 353 355 357 356 356 357 357 356 353 352 353 352 351 352 350 348 346 344 345 345 345 345 344 344 344 344 345 345 345 346 346 345 345 345 345 345 345 346 348 349 349 349 349 349 351 350 348 347 347 347 350 349 347 346 344 343 344 343 342 343 344 346 348 347 348 348 347 347 344 341 342 342 343 344 343 342 341 341 343 344 345 346 346 345 345 346 346 346 346 347 347 348 347 345 346 346
353 354 356 356 357 356 357 359 357 356 355 354 353 352 352 350 348 347 345 344 345 346 345 345 345 344 345 346 346 346 346 345 344 345 346 345 345 345 347 348 349 348 348 349 349 350 350 350 350 350 350 350 350 348 347 344 345 347 345 343 345 347 348 346 346 348 348 347 346 347 346 344 344 344 343 342 341 342 344 345 346 346 347 346 347 346 347 347 347 348 349 348 349 348 346 347 347
355 356 356 356 357 355 357 359 359 357 355 354 354 354 352 350 349 347 345 344 344 346 345 345 345 344 345 345 346 346 346 345 344 345 345 345 344 346 347 348 348 347 348 348 349 350 350 350 351 351 350 350 350 349 348 347 348 349 347 348 349 348 347 348 348 347 347 346 344 346 347 344 343 342 342 343 345 346 348 348 347 347 347 347 347 347 347 348 349 348 349 349 350 349 347 347 346
356 356 356 356 356 355 356 358 359 357 355 354 353 355 353 349 349 347 345 344 345 346 345 344 345 345 345 345 346 347 347 346 345 345 345 344 345 346 347 349 347 347 348 348 349 350 350 350 350 350 350 350 350 350 349 349 349 349 349 350 349 347 347 348 348 347 347 344 339 342 346 345 343 344 346 347 348 349 349 349 349 348 347 348 347 348 348 348 348 347 346 348 350 349 347 348 347
356 356 355 356 356 356 357 357 357 356 355 356 353 352 352 350 349 347 345 344 345 346 345 344 345 345 345 346 346 347 347 346 346 346 345 345 345 345 347 348 347 347 348 348 349 349 350 350 349 349 349 349 350 349 349 349 348 348 349 348 346 346 348 348 347 347 345 339 337 340 343 345 346 347 350 351 350 350 350 348 348 348 348 349 348 347 346 347 347 346 347 348 350 349 348 349 346
357 356 354 354 355 355 356 355 355 355 355 358 354 347 348 351 350 346 345 344 345 346 345 345 345 345 345 345 346 347 348 347 347 347 347 346 345 345 347 348 348 348 347 347 348 348 349 349 349 349 348 348 350 349 349 348 348 348 348 346 346 347 347 347 347 346 343 338 337 338 339 343 345 347 351 352 351 349 350 349 349 350 349 349 348 346 346 347 347 347 348 349 349 348 348 348 347
355 355 353 352 351 352 355 354 355 354 353 359 355 345 345 350 349 346 346 344 344 345 345 345 344 345 345 345 347 347 347 347 348 348 348 347 345 345 346 348 348 347 347 348 347 347 348 349 349 349 348 349 349 349 349 348 348 347 347 347 347 348 347 346 346 346 344 342 340 337 338 340 342 344 348 352 351 349 350 350 351 351 350 350 348 346 347 347 347 348 349 350 350 348 346 346 346
353 350 347 348 350 351 355 354 355 353 352 358 354 346 348 350 349 347 346 345 343 343 343 344 344 344 344 345 347 347 347 347 348 348 348 348 346 345 346 348 347 346 347 348 347 347 347 348 349 348 348 349 348 348 348 348 348 347 347 347 347 348 347 345 345 345 345 345 343 340 338 339 340 341 344 350 350 350 350 350 352 350 349 353 349 346 348 347 347 347 349 351 350 349 347 345 345
354 349 344 346 349 350 353 353 354 353 352 356 353 351 353 351 349 347 346 346 344 344 343 343 344 343 343 344 346 346 346 347 348 348 349 349 347 345 346 347 347 347 347 347 346 346 347 347 347 348 348 348 348 346 346 347 347 347 347 347 348 347 346 346 345 345 344 344 346 343 339 340 341 340 342 348 349 349 349 349 351 350 351 353 349 349 350 348 348 345 348 351 350 350 349 345 344
345 347 346 347 349 350 352 352 354 354 352 354 352 356 357 353 350 349 347 348 347 345 344 343 344 343 343 344 344 346 346 347 348 348 349 349 348 346 346 347 347 348 347 346 347 346 346 346 346 347 348 348 347 343 343 346 345 346 347 347 348 347 346 346 345 345 345 346 348 344 340 341 341 341 342 346 349 350 350 350 351 352 354 353 351 353 351 349 350 348 348 350 349 351 351 347 346
338 342 345 345 347 349 351 352 354 353 352 352 350 354 356 352 350 349 348 348 347 348 346 344 344 343 343 343 344 346 346 347 347 348 349 349 349 347 346 347 347 347 347 346 347 346 346 347 347 347 348 348 346 341 343 346 344 346 348 347 348 347 345 346 345 346 346 347 348 342 340 343 342 342 343 345 349 351 350 352 351 352 353 352 354 354 352 350 349 349 350 346 347 350 350 348 347
342 346 347 344 345 347 352 353 353 353 352 351 350 353 355 351 349 349 349 350 349 349 347 345 345 344 343 342 344 346 346 346 347 348 349 349 349 348 347 347 347 348 347 347 347 347 347 348 347 347 349 348 343 340 344 347 345 347 347 346 348 347 346 346 346 348 348 349 349 343 343 345 343 342 343 344 349 351 351 352 352 353 354 353 356 355 354 354 348 349 352 347 347 348 347 347 345
345 349 349 348 346 349 355 355 352 352 351 349 349 351 352 351 349 350 350 351 351 350 348 347 346 344 343 342 344 346 346 346 347 347 349 349 349 349 348 347 347 348 348 348 348 347 348 349 347 347 349 347 343 343 347 348 346 347 346 345 347 347 347 347 348 348 349 350 350 347 346 346 343 341 342 343 346 350 352 351 349 353 355 353 355 356 354 353 347 349 349 346 349 350 347 348 345
347 348 347 346 348 350 356 356 353 353 352 352 352 352 352 351 349 350 351 351 351 351 349 348 346 344 343 342 343 345 346 346 347 347 348 349 350 349 348 347 347 348 349 349 349 348 348 348 347 348 348 346 346 347 348 348 347 347 346 345 345 345 347 348 349 349 350 350 348 348 350 348 343 340 341 341 344 350 353 351 347 349 354 351 349 351 349 346 345 349 350 347 350 350 348 349 345
346 344 344 344 348 350 352 355 354 352 353 354 354 352 353 353 350 350 352 351 351 350 349 348 346 345 343 342 343 345 346 347 347 347 347 348 349 349 349 349 347 348 350 349 349 348 349 348 347 348 347 345 347 348 347 348 347 347 345 345 344 344 346 347 349 350 351 351 348 349 349 345 344 343 343 343 347 352 354 353 350 348 349 347 346 348 348 346 346 351 354 354 351 348 347 347 344
345 343 342 343 347 346 345 352 355 353 354 356 354 351 353 353 351 351 351 352 351 349 350 348 346 346 343 342 343 344 346 348 348 346 347 347 348 349 349 349 348 349 349 349 350 349 349 349 347 348 347 345 347 346 347 349 347 347 347 346 346 345 346 349 350 350 351 351 350 350 345 342 347 350 348 349 352 350 348 352 355 351 346 345 346 346 348 350 351 353 353 354 353 348 347 347 345
342 343 341 341 343 343 345 351 355 353 352 354 351 345 346 351 353 352 350 350 351 350 351 350 347 346 344 342 342 344 345 347 348 346 347 347 348 349 349 349 348 349 349 348 349 348 349 350 346 346 346 346 346 342 345 350 345 345 347 347 348 347 348 351 350 349 350 352 351 350 348 345 348 352 351 351 351 347 345 348 353 353 347 345 350 350 351 353 352 353 350 350 355 353 350 350 347
337 341 342 340 342 344 346 350 351 349 346 351 348 338 339 347 352 353 349 350 351 351 353 351 349 347 345 343 342 344 345 347 348 347 347 347 348 349 349 350 348 348 348 348 349 348 349 351 346 344 344 346 346 337 340 347 340 340 344 346 350 350 349 350 348 348 348 350 350 350 351 349 349 353 352 351 352 349 345 343 346 353 351 347 351 352 352 351 351 355 351 349 354 353 351 352 348
332 339 341 338 342 345 345 348 348 344 342 349 347 341 341 343 346 349 348 348 349 350 353 351 351 349 347 345 343 344 345 346 347 346 347 347 348 349 350 350 348 348 349 347 348 348 349 351 348 345 342 345 348 336 334 341 339 342 345 346 349 349 348 348 347 348 347 348 350 349 352 352 350 352 352 352 352 348 344 342 344 353 355 350 350 351 351 351 353 355 350 346 348 346 348 352 351
331 339 340 338 341 343 345 347 346 344 344 348 347 346 348 344 340 346 349 347 348 350 352 351 351 351 348 346 343 343 344 345 345 346 347 347 348 349 349 350 348 348 348 347 348 347 350 351 349 347 343 344 348 339 333 339 339 343 346 347 348 347 347 347 347 349 349 349 351 350 350 351 349 351 353 352 350 346 344 345 344 348 355 354 351 353 353 353 354 352 346 345 345 344 344 348 351
332 338 337 338 339 340 346 346 344 343 344 344 344 344 349 346 342 347 352 349 349 350 351 351 351 351 350 347 344 343 343 344 344 345 346 347 348 348 349 349 348 348 347 347 347 347 351 352 350 349 344 343 346 339 334 338 338 339 344 348 348 346 347 347 347 350 350 350 351 351 352 353 351 350 351 351 349 347 346 346 344 346 352 354 352 354 354 353 353 349 345 347 346 347 346 344 347
333 336 335 337 337 339 344 344 344 348 346 342 343 342 346 347 346 350 354 351 350 350 351 353 352 351 350 348 345 343 343 344 344 344 345 346 347 348 349 348 348 348 348 347 347 348 351 352 351 349 346 344 345 339 333 335 336 336 341 348 349 347 347 347 347 349 350 350 351 351 352 353 353 351 350 349 347 347 347 347 348 349 351 353 353 353 354 353 351 348 348 350 348 349 348 346 348
333 335 334 336 338 341 345 343 344 346 343 340 342 344 343 344 346 348 352 352 350 349 351 352 352 351 350 349 346 343 344 343 343 344 345 346 347 347 348 348 347 348 349 348 347 348 351 352 350 347 345 347 346 338 333 334 334 336 340 347 350 349 348 349 349 351 350 349 350 352 351 350 352 353 353 352 348 349 349 347 351 354 353 354 354 353 354 354 352 351 352 351 349 347 345 346 349
332 333 333 333 335 337 338 340 342 341 340 340 342 346 342 338 343 348 350 349 347 349 350 349 349 350 350 350 347 344 343 344 343 343 344 345 347 348 348 348 348 349 349 349 348 348 350 352 351 346 343 346 347 339 336 336 336 337 340 344 348 349 350 349 350 353 351 349 350 352 353 352 352 353 354 352 350 352 352 348 351 356 354 354 354 352 353 353 352 353 352 351 351 350 346 346 349
331 331 329 327 331 334 333 336 339 337 338 342 345 346 342 338 341 348 349 346 346 349 349 348 347 348 349 349 349 346 343 343 342 342 343 344 346 347 348 348 348 349 349 350 350 349 350 352 352 349 343 344 346 341 338 339 339 340 341 341 343 346 349 350 351 353 352 352 352 352 353 352 351 352 353 352 350 353 354 350 349 352 351 351 350 349 350 349 350 352 352 350 352 353 350 349 351
329 329 326 325 329 334 334 336 337 334 335 342 346 344 342 341 343 347 348 347 348 349 349 348 347 348 348 348 348 347 344 343 342 342 343 343 345 347 348 349 349 349 349 350 351 351 351 352 353 353 347 343 345 345 342 339 341 344 344 343 343 342 344 348 350 353 353 353 354 353 353 353 351 351 351 351 352 352 354 352 348 347 346 345 345 346 345 345 346 348 349 350 353 354 352 349 350
330 330 329 326 327 332 333 334 335 335 336 340 342 340 339 341 346 350 351 350 350 351 351 351 349 349 348 346 348 349 346 343 343 342 342 343 344 346 347 349 350 350 350 351 351 351 352 353 354 355 351 344 342 346 346 343 343 347 347 345 347 347 345 346 348 352 354 354 354 353 353 353 352 352 351 351 353 352 354 355 350 347 347 344 344 344 345 346 345 344 347 349 351 351 349 347 348
329 332 330 325 328 332 331 331 332 334 337 338 336 339 343 344 347 350 351 353 353 352 353 352 350 351 349 346 346 348 347 345 343 343 343 343 344 345 347 348 349 350 350 351 351 352 353 353 355 356 354 349 344 343 346 347 347 349 349 347 348 350 349 348 349 350 353 354 355 354 354 353 353 354 354 353 353 352 352 354 352 350 349 345 343 344 345 348 347 345 346 346 347 351 350 348 349
327 329 327 326 331 333 329 331 333 332 336 338 335 337 343 344 344 346 349 352 352 351 353 350 350 352 351 349 347 348 348 347 344 343 343 344 344 345 347 348 348 349 350 350 351 351 353 354 356 356 355 354 351 344 345 349 349 350 351 348 347 349 349 349 350 350 352 353 354 355 354 353 353 354 355 353 354 353 351 352 354 355 353 349 347 346 345 347 346 346 347 346 347 352 353 349 349
328 327 328 330 334 332 330 332 331 329 333 337 336 337 339 338 341 347 349 352 351 350 353 351 350 352 351 351 350 350 349 347 346 345 343 344 345 345 347 347 348 348 349 350 351 351 353 353 355 356 355 356 355 351 350 351 351 351 352 349 348 350 350 350 350 350 351 352 353 354 354 354 354 353 353 354 355 355 353 350 350 354 356 355 352 351 350 348 346 346 350 350 347 349 350 347 345
329 329 331 331 329 327 328 328 328 332 333 333 335 338 340 338 339 346 349 350 353 352 353 351 349 349 349 350 352 351 348 346 346 346 345 344 345 346 347 347 347 348 349 350 350 350 352 353 354 355 355 355 355 354 354 353 352 352 352 351 350 350 351 350 349 349 350 350 352 353 352 353 354 353 354 354 355 356 356 353 349 350 355 355 353 354 354 352 348 348 352 355 353 350 348 346 345
328 329 330 331 328 325 326 325 327 334 335 333 333 336 341 343 344 349 351 350 353 353 353 353 352 350 348 349 351 351 350 347 346 346 347 345 345 346 347 347 347 348 349 349 349 349 350 352 353 353 354 354 354 354 354 354 354 352 351 352 351 350 350 350 350 349 349 349 350 352 353 352 353 353 354 354 354 355 356 356 353 352 354 355 355 355 355 354 352 349 351 355 356 356 353 348 348
327 326 325 327 328 325 327 327 327 331 332 332 334 334 340 347 349 351 353 352 353 353 351 352 352 351 348 348 350 352 352 351 350 348 347 346 346 346 347 347 347 348 349 349 349 349 350 352 352 352 352 352 352 353 355 355 354 353 353 352 352 352 351 350 350 349 349 349 349 350 352 352 353 353 353 354 355 354 355 355 356 355 355 354 355 355 355 355 355 351 349 350 352 357 358 352 350
329 327 325 325 325 323 323 324 326 328 328 328 329 331 339 347 347 349 353 352 354 354 353 352 352 352 349 349 351 353 352 352 351 350 349 348 349 349 348 347 346 348 350 350 350 350 351 351 352 352 351 352 352 352 353 354 353 354 354 353 352 352 351 350 350 349 348 348 348 349 350 351 352 353 353 354 355 355 355 354 355 354 354 354 355 356 355 355 356 354 351 351 351 354 354 350 349
Wind_Speed
2 2 2 1 2 4 5 5 3 3 3 2 7 7 8 10 11 11 12 10 8 8 12 13 11 8 6 8 10 11 13 10 5 4 7 13 19 16 16 19 16 17 15 15 13 11 11 10 11 11 10 11 12 13 12 11 10 11 11 12 11 11 11 11 10 10 10 10 11 10 10 10 12 12 11 16 18 17 17 17 16 15 15 15 15 15 14 15 15 15 15 16 16 16 16 16 17
2 0 1 2 4 5 4 4 2 2 3 6 8 7 10 9 10 11 10 9 9 12 14 13 13 12 9 10 10 10 13 13 11 13 17 20 18 15 17 17 15 16 14 14 13 11 10 10 10 10 10 11 12 13 12 10 9 9 10 12 12 12 12 11 11 11 11 11 12 11 12 12 13 12 13 16 17 17 17 17 16 15 15 15 15 14 13 14 14 15 15 15 15 16 16 16 17
4 3 2 3 4 6 5 3 4 2 5 7 7 8 10 9 11 12 11 13 14 15 13 12 12 10 9 11 10 10 11 13 15 19 21 19 17 16 16 15 14 15 13 13 13 10 9 10 10 9 10 10 11 12 12 11 9 8 9 11 12 12 13 13 12 11 12 13 13 13 13 12 12 12 13 14 15 16 17 16 15 15 14 14 14 13 13 13 14 14 14 15 15 15 15 15 16
3 4 3 4 3 4 4 2 4 2 6 5 7 9 9 10 13 12 14 16 15 14 11 12 10 8 9 11 11 12 13 14 15 18 19 16 16 17 15 15 13 13 13 12 12 11 10 11 11 10 10 10 10 10 11 11 10 9 9 10 11 12 13 14 14 12 13 13 12 13 13 13 13 14 14 14 14 15 16 15 14 14 14 13 13 13 13 13 13 13 14 14 14 14 14 14 14
2 5 5 5 3 2 2 2 3 3 5 5 8 10 11 12 13 13 15 15 13 12 10 10 10 10 12 12 11 11 12 15 16 15 16 16 16 16 15 15 13 12 13 12 12 10 11 12 11 10 10 9 8 9 9 10 11 10 10 9 10 12 12 14 14 13 14 12 10 12 14 14 14 14 14 14 15 15 14 14 13 13 13 13 13 13 13 13 13 13 13 13 14 13 13 13 13
3 5 6 5 6 3 1 2 2 6 6 7 8 10 12 13 13 14 15 15 13 10 8 9 12 13 13 15 15 13 11 14 14 13 15 17 17 16 15 13 12 12 12 12 12 10 11 11 10 10 9 9 8 7 7 9 9 9 10 10 10 11 12 14 14 14 15 12 10 12 14 15 15 14 14 14 16 15 13 13 12 13 13 13 12 13 12 12 13 13 13 13 13 13 13 13 13
2 3 4 4 5 3 3 2 6 7 7 9 10 12 13 13 14 14 14 13 12 9 7 10 13 12 11 12 15 14 11 12 13 14 16 18 16 15 13 12 12 11 11 12 12 12 11 9 9 10 9 10 9 8 8 8 8 8 9 10 11 11 12 13 13 14 14 13 11 12 13 15 15 14 14 14 15 14 13 12 11 12 12 12 12 13 12 12 13 13 13 13 13 12 13 13 13
4 4 4 2 2 4 4 2 7 7 9 11 12 14 13 14 14 12 11 10 9 8 8 11 11 10 10 12 13 13 12 13 15 16 17 17 15 14 12 11 12 11 11 11 11 11 10 9 9 9 9 10 9 9 9 9 8 8 9 9 10 11 12 13 12 13 13 13 13 12 13 15 15 15 15 14 14 14 13 11 11 11 11 12 12 12 12 13 13 13 13 13 12 12 12 12 13
3 4 1 2 4 4 3 6 8 8 10 12 13 14 14 14 12 10 10 10 9 9 8 8 10 11 13 16 15 13 14 15 17 17 16 15 14 13 12 11 11 11 10 10 9 9 9 8 8 8 8 9 9 9 9 9 10 10 10 11 12 12 13 13 14 13 13 13 13 13 13 14 15 15 14 15 15 15 14 12 11 11 11 12 12 12 12 13 13 13 13 13 12 11 12 12 13
1 3 1 1 4 2 6 7 8 9 11 12 13 13 13 12 11 9 10 10 10 9 8 8 12 14 15 17 15 14 15 16 17 16 15 14 13 12 11 11 10 10 9 8 7 7 8 7 7 8 8 8 9 10 10 9 10 11 11 12 13 13 13 13 14 13 13 13 13 12 13 15 15 15 14 14 14 15 14 12 11 11 12 12 12 12 12 13 13 13 13 12 12 12 13 13 14
1 2 2 1 3 1 6 8 8 9 11 12 12 12 10 11 10 9 10 10 10 10 10 10 13 17 17 16 14 15 16 16 16 15 14 13 12 11 11 11 10 9 7 5 6 6 7 7 6 7 7 8 9 10 10 9 9 10 10 10 11 12 13 13 14 13 13 14 13 12 13 15 15 15 15 14 14 14 14 12 11 12 12 12 12 12 12 13 14 13 13 13 13 13 13 14 15
1 1 1 0 3 1 6 8 9 9 11 11 10 10 9 9 9 9 10 9 10 10 9 9 12 15 14 14 14 16 16 16 15 14 14 12 12 10 10 11 8 8 6 5 7 6 7 8 7 7 7 7 9 9 8 8 8 8 9 9 10 11 12 13 14 13 13 14 14 12 13 14 14 14 14 15 14 14 14 12 12 12 12 12 12 11 11 13 14 14 13 14 14 14 14 15 15
1 1 0 1 3 1 7 8 9 9 9 9 10 10 9 9 9 9 10 10 10 9 9 9 12 13 12 14 15 16 16 15 15 14 13 11 11 10 10 11 7 6 7 5 6 7 6 7 7 6 6 7 7 7 8 8 8 7 9 9 10 11 12 13 14 13 13 14 14 13 13 13 14 14 14 14 14 14 13 13 12 12 12 12 12 11 11 13 14 14 14 14 14 14 15 15 14
4 4 3 1 4 3 7 8 8 8 7 9 11 10 8 8 9 10 11 10 9 9 10 10 11 12 13 15 14 16 16 16 16 14 13 11 10 10 10 11 8 7 8 7 5 5 5 6 6 6 6 6 6 7 8 9 8 8 10 10 11 12 13 14 14 14 13 14 14 13 13 13 14 14 14 14 14 13 12 13 12 12 11 11 11 11 12 13 13 14 15 15 15 15 15 14 14
3 3 2 3 4 5 5 7 9 8 7 10 11 11 10 9 9 11 10 9 9 10 10 9 8 8 11 12 13 16 17 17 16 14 13 12 10 10 10 10 9 8 8 7 6 5 5 5 6 6 6 7 7 7 9 10 10 10 11 12 12 13 14 15 15 15 14 14 14 14 13 13 14 14 14 13 14 13 12 11 12 11 11 11 11 10 11 12 13 13 15 15 15 14 14 13 13
1 2 1 3 3 6 5 7 10 8 7 11 12 12 12 10 9 10 8 7 11 9 7 9 6 5 10 13 17 19 19 18 16 14 13 12 11 10 10 9 8 8 7 7 6 6 6 4 5 6 7 8 8 8 10 11 12 12 13 13 13 14 15 16 16 16 15 14 14 15 13 13 14 14 14 14 13 13 12 11 10 10 10 11 10 9 11 12 13 13 14 15 15 15 14 14 14
0 2 2 2 2 2 4 5 7 8 10 12 13 12 11 9 8 9 7 7 11 8 7 9 6 7 13 17 22 22 20 18 16 15 13 12 11 10 9 9 8 7 5 6 5 6 6 4 3 5 7 9 9 9 10 12 13 13 14 15 15 15 16 17 16 16 16 14 14 15 14 14 14 15 15 14 13 12 11 10 10 10 10 10 10 10 11 12 12 12 13 13 13 14 15 16 16
1 1 1 1 2 2 3 6 7 10 12 12 12 11 11 10 9 9 8 8 10 10 11 12 12 14 18 21 23 22 20 18 16 14 12 11 10 9 9 8 8 7 4 3 4 4 5 4 3 4 6 8 9 9 11 13 13 13 14 15 16 16 17 17 17 16 16 15 15 15 15 15 15 15 14 14 13 12 11 9 10 11 11 11 11 11 11 12 11 11 12 12 13 13 14 15 13
3 1 1 1 1 0 1 5 9 11 12 13 13 11 11 11 10 8 8 10 10 11 12 14 16 18 19 22 22 21 19 17 15 13 11 10 10 9 9 8 7 8 6 4 4 4 5 5 5 5 6 8 8 10 11 13 14 13 15 16 16 16 16 18 18 17 17 17 17 16 15 16 16 15 14 14 13 12 11 10 11 12 13 13 12 11 11 11 11 11 12 12 13 13 15 12 7
3 0 1 1 4 4 4 7 8 13 14 13 13 11 11 11 10 8 8 11 10 10 12 13 16 18 20 21 20 19 18 16 14 12 11 10 10 10 9 9 8 7 7 6 5 5 5 6 7 6 7 8 8 10 12 13 15 14 16 17 17 17 18 19 19 18 18 18 18 17 16 16 16 14 14 14 13 12 12 12 13 14 13 12 12 12 11 10 11 13 12 12 13 14 13 7 3
1 1 2 3 3 3 8 8 8 15 14 12 13 12 12 10 8 9 10 9 8 9 11 13 16 19 20 20 19 18 16 15 13 11 11 10 10 10 10 10 8 7 7 7 7 7 6 7 9 7 7 9 8 10 13 14 14 15 15 16 17 17 18 19 20 20 21 20 19 18 17 17 16 14 14 14 13 13 13 13 13 13 12 11 11 11 10 9 11 12 11 12 12 10 6 3 3
2 4 6 6 7 5 6 7 6 11 12 11 11 11 11 10 8 8 7 6 7 10 11 14 17 19 19 19 18 16 15 14 12 11 11 10 10 10 11 10 9 8 8 8 7 7 5 6 8 7 9 10 9 10 13 14 14 15 15 15 17 16 16 18 21 23 23 21 19 18 18 17 16 15 14 14 13 14 12 10 9 10 10 9 9 8 7 9 10 7 6 7 7 4 3 4 4
1 3 4 8 9 3 2 5 5 8 12 10 9 11 12 10 8 7 6 7 9 11 12 16 18 17 18 18 16 15 14 13 12 11 10 10 11 10 11 11 10 9 8 9 8 8 6 6 8 8 10 10 9 11 14 14 14 14 15 15 16 15 16 18 21 23 22 21 20 18 18 16 15 14 13 13 13 12 9 8 8 8 8 6 7 6 5 6 5 3 3 3 4 4 3 4 4
0 2 1 6 8 4 1 5 5 7 11 10 8 11 12 10 8 8 8 9 10 12 14 18 18 17 17 16 16 14 13 12 11 11 11 10 11 11 11 11 10 9 9 9 9 10 8 7 9 10 12 11 9 10 13 14 14 15 15 15 16 15 16 17 18 19 20 21 19 17 17 15 14 13 12 11 11 10 9 9 8 7 7 6 6 6 5 5 5 5 5 4 5 4 4 4 4
2 1 4 5 6 5 4 4 5 9 11 8 7 11 10 10 10 9 10 11 12 14 16 18 18 17 16 15 15 14 13 13 12 12 11 10 11 11 11 11 10 9 10 9 9 11 10 9 11 11 12 12 10 9 11 15 16 15 15 16 17 15 14 15 16 17 16 18 19 17 14 13 12 11 11 10 10 10 10 8 7 6 7 7 6 6 6 6 5 5 5 4 4 4 4 4 4
3 4 3 3 6 5 4 6 6 7 9 7 7 11 11 10 10 9 10 13 13 15 17 18 18 16 15 15 14 13 13 13 13 12 11 11 12 12 11 11 10 10 10 10 10 11 11 11 11 12 12 12 11 9 10 15 17 14 14 17 17 15 13 14 14 14 14 15 18 17 12 12 12 11 11 11 11 11 9 8 7 7 6 6 6 6 6 5 5 5 4 4 4 4 4 4 4
1 3 2 2 7 5 3 7 6 6 9 10 8 8 12 12 8 7 10 13 14 16 18 18 17 16 15 15 14 13 12 12 12 12 12 12 12 11 11 11 10 11 11 11 11 11 11 12 12 12 13 13 11 11 11 14 16 14 14 15 14 14 14 14 12 11 13 13 16 19 15 12 12 11 12 11 10 9 8 8 7 6 6 6 6 5 5 5 4 4 5 5 4 4 4 4 4
1 1 2 3 7 6 6 8 7 6 7 8 7 6 11 12 7 7 12 14 15 17 18 17 16 15 14 14 13 12 12 12 12 12 12 12 11 11 11 11 11 11 11 11 11 12 12 12 12 12 13 13 12 13 13 13 15 14 14 13 13 14 13 12 12 11 12 13 16 20 18 14 12 12 12 10 9 8 7 7 7 7 6 6 6 5 5 5 4 4 6 6 4 3 3 3 3
2 2 2 3 6 6 8 9 8 6 5 7 9 7 9 9 7 13 15 14 16 17 17 17 16 15 14 14 13 12 12 11 11 12 12 11 11 12 11 11 12 12 11 11 12 12 13 12 12 12 13 14 13 13 13 13 14 13 12 13 14 14 12 11 12 11 13 15 16 17 18 16 14 13 12 10 8 8 7 6 7 6 6 6 5 5 6 5 5 4 5 4 3 3 3 3 3
2 2 3 4 4 4 7 9 9 7 5 6 8 6 6 5 7 14 15 16 17 16 16 16 16 16 14 13 13 12 12 12 12 12 11 12 11 12 12 12 12 12 12 12 13 13 13 12 12 12 12 13 13 12 12 12 12 12 12 12 13 12 11 11 11 12 13 15 15 14 16 16 14 13 13 10 8 8 7 6 7 5 6 6 5 5 5 4 5 4 4 3 3 3 3 3 4
3 3 4 4 1 2 6 9 10 10 6 5 5 4 6 6 8 14 14 16 17 16 17 15 15 16 15 13 13 13 13 12 12 12 12 12 12 12 13 13 12 12 13 13 14 13 12 12 12 12 13 13 12 12 12 12 11 12 12 12 12 11 11 11 11 12 12 13 13 13 14 14 14 14 13 11 8 7 7 6 6 5 6 6 5 7 6 4 4 4 3 3 2 3 3 3 5
2 1 2 3 1 2 4 8 11 10 8 7 5 2 5 3 8 15 15 15 16 16 17 15 14 15 15 14 12 13 13 12 12 13 13 13 13 13 13 13 13 13 14 14 14 13 12 12 12 12 13 12 12 13 12 12 12 11 12 11 12 11 11 11 11 12 12 12 12 12 13 13 13 12 13 13 9 7 6 6 5 5 6 5 4 7 6 4 4 5 4 3 3 3 3 3 4
2 2 2 3 2 5 5 6 9 9 9 9 5 2 4 3 10 15 15 15 14 14 15 15 15 15 15 14 13 13 13 13 13 13 14 13 13 14 14 13 13 13 14 14 14 14 13 13 13 13 12 12 12 13 14 13 13 12 12 11 11 11 11 11 12 12 12 12 10 11 12 11 11 10 11 12 11 7 5 5 5 5 5 4 4 5 4 4 4 5 4 4 3 2 2 4 4
2 1 1 5 3 6 7 5 6 9 9 9 5 2 2 5 12 16 15 15 15 13 14 15 14 14 14 14 13 13 13 14 14 14 14 13 14 14 14 14 14 14 14 15 14 14 14 14 14 13 12 12 12 13 13 12 13 13 11 10 10 10 10 11 12 12 11 11 10 10 11 10 9 10 10 11 11 7 4 5 5 5 5 4 4 4 4 5 4 4 3 4 4 2 2 3 3
4 1 1 2 4 6 9 7 8 12 11 11 10 6 5 8 12 16 16 15 15 14 14 14 14 14 13 13 14 14 14 14 14 15 14 14 14 15 15 15 14 14 15 15 15 14 14 14 14 14 12 12 12 14 13 11 12 12 10 11 11 10 10 10 11 10 10 10 9 10 10 9 8 9 9 9 9 6 5 4 4 5 4 4 4 3 4 5 6 6 4 5 5 3 2 2 3
6 5 1 4 3 3 8 8 8 12 11 11 12 9 8 12 13 14 16 16 13 13 14 13 13 14 14 13 14 14 14 14 14 15 15 15 15 15 15 15 15 15 15 16 15 15 15 15 15 15 13 12 13 14 13 11 11 11 10 11 10 10 10 10 10 9 9 9 8 8 9 8 8 8 7 8 9 7 6 4 4 5 3 4 4 3 3 3 5 6 5 6 4 3 3 2 3
4 4 2 3 2 3 6 9 10 12 11 10 10 8 7 9 8 8 13 15 13 13 14 14 14 14 14 14 14 15 14 14 15 15 15 15 15 15 16 16 15 15 16 16 16 15 15 15 15 16 14 13 13 13 12 11 11 11 11 10 10 10 10 10 9 8 8 8 9 8 7 7 7 8 7 7 8 7 6 4 5 6 3 4 5 4 4 4 5 5 5 7 5 4 4 3 3
2 2 2 2 4 4 4 8 10 8 5 6 8 8 7 7 5 8 12 13 13 14 15 14 15 14 13 14 14 15 15 15 16 16 16 16 16 16 16 16 16 16 16 16 16 16 15 15 15 15 15 14 13 13 12 11 11 11 11 10 10 10 10 9 8 8 8 7 9 9 7 6 6 7 6 6 7 6 4 2 4 6 4 4 6 5 5 5 6 4 4 6 5 4 4 3 4
5 3 3 1 4 4 3 5 9 6 2 4 9 8 7 5 3 9 11 12 12 14 15 14 15 14 13 14 15 16 16 16 17 17 16 16 17 17 16 16 16 16 16 17 16 16 16 15 16 15 15 15 14 13 13 11 11 11 10 10 10 10 9 8 8 8 7 7 8 8 8 7 6 6 5 5 5 4 4 4 3 3 4 5 6 5 5 5 6 5 3 4 6 6 4 2 4
3 4 4 2 3 3 2 5 7 7 4 3 8 7 5 4 4 6 8 8 12 13 14 14 14 14 14 14 15 16 17 17 17 18 17 17 17 17 17 16 17 17 17 17 17 17 16 16 16 16 15 15 14 15 14 12 13 12 10 9 9 9 9 8 8 8 7 7 7 7 7 7 7 5 4 4 4 4 6 6 3 2 3 5 5 5 5 4 4 4 3 5 7 8 6 3 3
3 4 4 2 3 2 3 5 4 4 4 2 6 6 4 5 5 4 8 12 12 13 14 15 15 15 14 15 15 16 17 18 18 18 18 17 18 17 16 17 17 17 17 17 17 17 16 16 17 16 16 15 15 17 16 14 15 16 14 12 9 9 9 8 8 8 8 8 7 7 6 6 8 6 5 5 4 3 4 6 6 3 3 5 4 3 4 3 2 2 5 6 5 5 6 3 1
1 5 7 6 2 5 6 8 5 2 4 4 6 7 6 7 7 7 6 10 11 13 15 16 16 16 15 16 17 17 18 18 17 18 18 18 18 17 17 17 17 17 17 17 17 17 16 17 17 17 16 16 15 17 17 16 16 16 15 14 11 10 10 9 9 8 8 8 7 7 7 6 7 6 5 4 3 3 4 5 6 4 2 3 4 3 3 3 3 2 4 6 4 5 7 4 3
2 5 7 9 2 7 7 11 8 2 3 5 7 7 3 5 8 10 10 11 12 13 15 17 18 18 18 17 17 19 19 18 18 18 19 18 18 18 18 17 17 17 17 17 17 17 17 17 18 17 17 16 16 18 18 16 16 15 13 12 10 10 10 9 9 8 7 7 6 7 8 7 7 6 6 6 5 5 4 4 5 5 3 1 3 5 3 3 3 4 4 6 6 6 7 5 4
2 3 4 7 4 0 3 7 7 3 2 4 6 6 1 3 8 11 13 13 14 15 15 17 20 20 20 19 18 20 21 20 20 19 19 19 19 19 18 18 17 17 17 17 18 17 18 18 18 17 17 17 16 17 18 16 16 15 13 11 10 9 9 9 9 8 7 8 7 7 7 7 7 7 7 7 7 5 5 5 5 6 6 4 3 4 3 2 4 6 4 5 5 5 6 5 3
1 5 4 5 4 4 6 5 5 3 4 4 7 8 3 2 4 7 12 13 14 16 15 16 20 21 22 21 20 21 22 20 20 20 19 20 19 19 19 18 17 17 17 17 18 18 18 18 19 18 17 17 17 17 17 16 16 15 14 12 10 10 9 9 10 9 8 8 8 8 7 6 6 7 8 7 6 6 5 5 5 6 6 5 4 4 5 5 5 4 3 4 4 3 3 3 3
2 5 5 5 6 8 7 4 3 3 3 3 9 11 5 1 2 4 8 11 12 13 14 15 19 22 23 23 22 21 22 21 20 19 19 20 20 19 19 18 18 17 16 17 17 18 19 18 19 19 18 17 17 16 16 16 15 15 14 12 11 11 10 9 10 9 9 9 8 8 8 8 6 6 7 7 7 6 6 5 5 4 4 4 5 6 6 5 2 1 1 3 3 4 3 2 3
1 3 6 5 5 5 6 7 3 3 4 4 10 15 7 1 4 7 6 8 10 10 10 11 16 21 22 22 23 22 22 23 21 21 20 20 20 19 19 18 18 18 16 17 17 17 18 18 19 19 18 18 17 16 16 16 15 14 14 13 12 12 11 10 10 10 10 10 9 8 8 8 7 6 7 7 7 6 7 6 6 4 4 5 5 4 4 4 3 2 3 4 4 4 3 3 4
4 5 5 4 4 2 3 6 4 4 4 3 9 14 9 3 4 7 8 8 9 9 8 10 15 21 23 22 22 23 23 24 22 22 22 21 20 20 20 19 19 19 17 17 17 17 18 18 19 19 19 19 18 17 16 16 16 15 14 14 14 13 12 11 10 10 10 9 9 9 8 8 8 8 8 8 7 7 8 7 7 7 7 6 6 5 6 7 6 6 6 5 4 4 3 3 4
6 5 4 5 4 3 3 3 3 5 3 2 9 12 6 3 4 9 12 9 9 11 13 15 19 23 24 23 23 23 23 24 24 23 22 22 22 21 21 20 19 19 19 18 17 17 18 18 19 20 20 20 19 18 17 17 17 16 15 15 15 15 14 13 11 10 10 10 9 10 9 9 9 9 9 8 7 8 9 8 8 9 9 8 8 7 8 9 8 8 7 5 5 6 5 4 4
8 6 5 6 5 4 3 2 3 5 1 2 7 9 4 2 3 6 10 8 9 13 13 15 19 22 24 25 25 23 23 24 24 24 23 23 23 23 22 21 20 20 20 19 18 17 17 18 18 19 19 20 20 19 18 18 18 17 16 16 15 16 16 15 13 11 10 10 10 10 10 9 9 9 9 9 8 9 9 8 9 9 9 9 8 7 8 8 9 10 8 6 8 8 7 6 6
7 6 5 6 6 3 1 1 4 3 1 7 8 6 4 4 5 5 9 11 12 13 13 14 15 17 22 26 25 23 23 24 24 24 24 23 24 23 22 21 20 20 20 19 19 18 17 17 19 19 19 20 20 20 19 19 19 18 17 17 16 15 16 16 14 12 11 11 10 10 10 10 9 8 9 10 10 10 9 9 10 9 9 9 7 7 8 7 8 9 10 9 10 10 9 8 7
7 6 5 6 6 4 2 3 5 4 1 5 5 2 1 3 6 7 9 11 10 7 10 15 15 16 18 22 25 26 24 24 24 24 24 23 24 24 22 22 21 20 20 20 19 19 18 17 18 19 19 19 20 20 20 20 19 19 18 18 17 16 16 15 15 14 13 12 11 11 11 11 10 9 9 10 11 11 11 11 10 9 10 9 8 8 8 8 8 9 10 11 10 9 8 8 7
4 6 6 6 4 5 5 3 4 3 2 3 3 1 0 1 4 3 1 1 5 4 1 8 14 18 17 17 21 25 24 23 22 23 24 24 24 24 23 22 22 21 21 20 19 19 19 18 18 19 19 19 19 19 20 20 20 19 19 19 18 18 17 16 15 14 14 13 12 12 11 11 11 10 10 9 10 11 11 11 10 10 10 10 9 9 9 9 10 9 9 10 9 9 10 10 9
3 5 6 4 3 4 4 2 4 5 4 3 3 1 1 2 2 2 5 5 4 4 2 6 12 15 16 14 13 17 24 27 21 18 22 24 23 23 23 22 22 22 21 20 19 19 19 19 18 18 19 19 19 19 19 19 20 19 19 19 19 18 17 16 15 14 14 14 14 13 12 11 12 11 11 10 10 10 11 12 12 11 11 11 11 10 10 10 11 10 10 11 10 10 12 13 12
5 5 5 5 4 5 5 5 5 5 4 2 4 4 4 1 2 2 3 6 6 4 4 4 10 13 13 12 10 11 21 29 22 16 18 22 23 23 23 22 21 21 20 20 20 19 19 19 18 18 19 19 19 18 19 19 19 19 18 18 19 18 17 17 16 15 15 15 15 14 14 13 13 12 12 13 12 11 11 12 13 12 12 13 12 11 11 12 12 11 10 11 12 12 13 13 13
7 7 7 7 6 5 5 5 4 2 4 2 6 3 3 1 1 2 2 4 6 5 6 6 6 9 12 13 12 12 16 22 22 22 21 21 22 22 23 21 20 20 20 19 20 19 19 18 18 18 19 19 18 18 18 18 18 18 17 18 18 18 18 17 17 17 16 16 16 15 15 14 14 13 13 14 14 13 12 12 12 12 12 13 12 12 12 12 13 12 11 12 12 12 14 13 12
7 8 8 8 6 5 4 5 5 3 3 4 3 4 1 0 1 3 3 2 2 4 4 4 5 7 11 13 13 14 14 16 18 19 18 18 20 21 21 20 18 18 19 19 19 19 18 17 17 18 18 18 18 17 17 18 18 17 17 17 17 18 18 17 17 17 17 17 17 16 16 15 15 14 14 14 14 14 13 13 13 12 12 13 13 13 12 12 13 14 13 14 13 13 15 15 13
8 7 7 8 8 6 6 7 7 5 5 6 2 3 3 1 1 2 3 2 3 3 2 6 8 7 10 13 14 13 12 13 14 13 11 14 17 19 19 20 20 18 18 18 17 18 18 16 16 17 17 16 16 17 18 18 17 17 16 16 16 16 17 17 17 17 18 18 17 17 16 16 15 15 14 14 14 14 14 14 14 13 13 13 13 13 13 12 13 14 15 14 13 14 16 16 15
Wind_Direction
123 84 83 218 227 248 239 240 258 197 215 107 97 100 92 93 104 104 106 108 96 91 95 91 82 70 52 73 89 75 47 46 69 75 108 133 137 135 130 135 144 140 142 141 137 132 130 130 123 123 124 122 117 116 114 115 123 129 129 125 126 126 123 124 126 120 118 129 132 132 136 144 152 155 142 123 122 121 116 114 114 114 111 107 102 100 99 98 98 97 95 93 93 93 90 86 86
111 101 232 254 241 252 246 215 239 174 161 94 88 95 104 108 103 96 99 102 100 106 102 88 83 79 65 77 90 78 57 60 86 96 111 130 134 133 135 137 138 138 143 140 135 134 134 132 127 128 127 123 121 122 121 122 128 133 133 128 126 125 123 123 122 116 115 119 119 130 141 148 152 145 128 120 124 122 117 118 118 115 111 109 105 102 100 99 98 97 95 92 93 93 91 87 87
140 233 268 287 253 257 273 240 242 164 116 95 96 98 108 105 92 92 98 103 107 108 101 92 90 85 78 79 73 71 74 77 97 108 117 131 131 133 137 136 136 137 142 138 136 139 139 136 130 129 129 126 122 125 128 131 136 138 138 131 129 129 126 122 121 120 115 116 128 143 142 139 141 128 119 121 124 119 117 119 118 116 111 108 105 102 100 98 97 97 94 93 92 91 90 88 88
162 250 265 274 270 255 262 247 253 135 103 104 102 101 106 102 98 100 103 107 111 108 103 102 91 69 67 79 84 80 82 88 105 117 123 132 130 133 135 132 134 129 135 140 139 144 144 139 135 134 132 127 127 131 134 135 139 143 140 132 132 132 128 123 121 120 116 129 148 142 132 132 133 126 123 124 119 114 114 117 118 115 110 106 103 101 99 96 97 98 95 94 94 93 91 89 90
180 260 269 244 242 267 268 265 256 94 95 102 102 107 109 106 107 109 110 112 111 104 105 110 101 90 69 66 85 90 92 99 111 118 120 127 128 132 131 130 131 127 138 141 134 139 144 143 140 139 132 129 133 138 139 139 142 142 138 135 138 135 131 127 125 125 124 144 152 125 128 132 129 128 126 123 116 112 112 116 118 112 108 105 103 101 98 96 98 99 98 97 96 93 91 92 93
177 240 280 246 255 301 305 248 125 89 85 98 105 110 110 109 112 116 118 115 105 97 106 111 106 103 82 69 75 83 103 110 113 118 119 125 130 132 130 128 128 130 139 137 137 143 146 147 145 141 136 134 139 146 145 144 144 141 139 142 144 140 137 138 135 131 132 146 141 122 130 129 127 128 124 119 114 115 116 117 115 110 109 107 104 100 97 97 99 100 100 97 94 91 90 91 94
235 226 265 258 269 284 261 218 104 93 89 96 106 109 110 112 116 123 123 118 108 103 112 108 108 106 97 95 83 77 95 109 115 120 123 127 130 130 128 127 128 131 127 128 141 147 149 156 152 146 145 145 150 160 159 153 149 144 144 145 146 145 146 146 137 130 136 145 135 124 129 128 128 125 120 116 114 120 121 117 114 111 110 108 103 100 99 99 100 102 99 95 93 89 87 88 91
278 254 246 269 259 216 232 114 97 94 98 100 100 105 112 117 121 127 123 117 113 114 116 109 108 99 97 105 95 87 94 103 113 119 124 127 130 129 127 127 128 128 123 127 133 138 152 159 153 148 152 156 159 166 167 158 154 154 148 147 151 151 152 146 133 136 145 145 134 125 126 128 127 122 120 119 117 120 119 115 112 110 108 105 103 102 101 99 102 102 99 96 92 88 85 87 89
231 276 265 268 259 214 154 107 100 93 100 103 99 105 113 118 122 124 119 116 116 119 115 107 106 103 104 104 100 102 102 107 115 120 125 127 130 127 126 129 130 135 130 125 127 139 154 156 153 157 161 162 162 165 166 161 161 165 154 154 162 159 155 145 137 144 149 144 135 126 124 126 125 122 120 119 119 119 118 117 113 111 106 101 100 99 99 99 102 102 99 93 88 87 87 88 89
190 299 329 251 277 217 125 111 107 103 102 102 103 109 114 118 120 119 118 120 122 116 106 103 109 114 114 106 105 110 112 118 120 122 127 128 127 124 126 125 128 143 140 125 129 147 153 158 163 165 169 167 167 164 163 167 169 167 158 158 164 160 154 146 139 142 148 142 134 128 124 123 124 123 120 117 118 118 119 118 116 112 103 98 97 98 100 101 103 100 94 89 87 88 88 88 88
99 262 245 260 281 225 117 110 109 111 107 105 104 105 111 119 120 118 119 122 125 116 114 115 112 115 113 103 105 114 121 124 124 126 128 127 124 123 124 121 125 134 133 129 137 152 155 163 174 175 174 166 168 164 161 169 169 159 158 162 160 157 152 146 142 141 146 140 134 131 123 122 125 126 124 121 118 118 119 119 117 109 101 98 96 97 100 104 103 97 91 88 88 88 88 86 85
34 248 252 329 277 257 109 113 117 117 114 113 106 107 113 118 123 124 123 127 127 118 114 116 118 120 113 107 114 124 128 127 128 130 129 128 124 125 122 121 131 130 130 152 143 145 159 169 172 174 167 160 165 161 158 164 169 160 160 168 160 155 152 148 147 147 147 139 136 131 125 125 127 128 126 123 121 120 119 117 114 106 102 100 98 97 99 104 103 96 93 90 88 88 84 82 83
249 258 302 58 270 215 114 115 122 126 119 113 108 113 118 117 120 122 126 128 125 118 109 116 129 123 111 113 125 133 132 131 134 133 132 130 126 128 124 121 122 115 123 139 132 130 151 164 156 156 154 151 158 157 157 159 171 169 157 164 159 157 155 149 149 152 149 139 136 131 126 127 127 127 124 123 122 121 120 117 113 106 101 100 101 100 100 105 104 97 94 91 88 86 81 80 83
190 206 195 195 233 182 126 125 132 130 113 110 112 116 114 104 112 121 127 123 112 111 114 124 128 115 113 121 133 140 136 137 138 136 134 131 130 128 123 121 114 102 106 112 120 127 139 148 144 151 151 151 158 163 163 157 167 164 154 160 159 158 155 151 152 154 148 139 137 133 129 129 129 126 123 123 121 120 119 117 114 108 103 101 101 99 102 106 102 97 95 93 89 83 79 78 81
201 207 206 250 197 149 130 131 126 122 115 119 120 118 110 99 111 118 116 115 112 115 117 122 122 120 135 139 142 145 140 140 140 137 134 131 130 126 121 119 114 113 111 117 131 127 128 147 151 151 153 155 155 162 165 159 167 164 155 158 159 159 155 152 152 150 146 140 138 136 134 131 128 125 123 122 120 118 115 115 114 110 108 104 101 98 102 107 103 101 98 93 87 81 78 78 81
264 92 68 286 193 142 150 142 126 123 125 124 124 124 113 101 106 109 110 118 118 120 121 119 121 137 144 137 136 142 141 140 141 136 134 131 129 125 122 118 116 119 120 127 128 122 133 159 157 151 156 153 150 162 166 161 166 165 157 157 161 159 154 153 151 147 144 140 137 137 136 132 127 122 122 122 119 116 114 114 109 107 106 100 97 96 103 109 107 102 95 90 87 83 78 76 79
11 92 70 302 287 118 120 121 129 130 129 128 131 131 118 108 103 112 128 120 111 114 119 116 112 112 118 123 131 139 140 140 141 138 136 134 133 131 126 128 130 128 143 153 137 129 139 163 157 148 155 148 154 165 163 162 163 161 158 157 159 156 153 153 148 143 141 137 136 137 136 134 129 124 125 123 118 115 114 112 107 102 98 95 94 97 107 109 102 95 91 89 88 85 80 74 70
7 81 95 267 334 6 44 75 109 125 131 134 135 131 122 118 114 129 136 116 116 119 113 109 103 101 107 119 130 137 139 142 144 142 141 139 141 141 138 142 141 139 158 150 119 122 130 150 144 134 148 144 153 159 155 160 158 158 160 157 157 155 153 149 142 140 139 137 137 138 137 134 129 127 127 122 118 116 112 108 104 97 95 98 98 97 105 106 95 90 88 83 81 77 73 68 56
15 66 173 275 69 287 338 83 114 128 135 135 134 131 123 121 122 139 140 130 137 127 117 116 110 110 116 124 132 137 141 146 147 146 143 144 148 147 145 145 147 151 152 129 115 121 126 139 131 133 147 140 149 153 151 154 150 153 156 154 154 152 150 143 137 139 138 135 136 136 135 131 127 126 125 119 117 114 108 105 101 99 102 103 102 100 105 105 92 84 79 73 71 67 66 64 40
8 235 120 177 190 184 112 79 111 131 138 138 133 127 122 127 132 142 143 137 139 129 127 129 125 126 128 131 136 140 145 147 149 150 145 145 149 149 149 146 151 156 146 142 141 139 145 140 131 140 141 133 142 147 147 148 146 147 149 150 150 151 151 142 134 134 133 133 136 136 135 131 127 126 122 115 112 108 106 107 104 105 107 106 106 105 106 105 92 79 70 63 61 56 57 66 67
57 312 19 123 162 119 90 79 110 134 140 138 134 132 128 132 131 132 142 139 134 134 137 136 135 135 135 138 141 144 146 147 149 149 144 145 148 146 147 147 150 149 143 142 145 149 152 129 124 136 133 130 137 141 144 144 144 145 146 147 148 151 146 136 133 133 131 133 134 134 135 134 132 130 123 116 114 111 106 104 107 111 112 112 107 103 103 94 82 71 53 49 53 48 50 65 74
78 337 349 62 80 66 82 87 112 137 137 133 139 139 129 132 125 120 139 140 134 138 136 135 137 139 140 141 143 145 146 147 148 145 143 144 145 143 142 145 145 147 147 140 142 143 134 119 124 134 126 127 136 138 139 138 142 145 145 147 147 147 138 130 132 130 130 132 131 129 132 134 135 132 125 123 121 112 106 107 118 121 114 106 95 99 100 75 67 58 37 43 61 67 65 63 63
48 306 340 60 88 90 74 98 122 144 135 142 151 134 126 133 124 114 123 114 119 129 130 134 137 140 141 142 145 146 144 145 144 142 145 144 143 142 140 142 142 145 143 138 138 130 128 126 126 132 127 129 135 131 131 133 138 140 141 144 142 142 138 133 132 128 130 131 126 127 131 133 134 132 129 124 115 110 117 132 136 124 110 101 98 112 110 81 81 100 84 75 89 95 73 63 67
11 237 96 69 93 115 177 124 146 157 143 157 155 128 130 140 126 114 120 119 122 127 131 135 137 141 142 143 145 142 141 141 141 142 143 142 140 138 137 137 138 141 139 138 136 131 137 130 123 130 128 129 130 124 126 129 132 133 133 138 138 139 133 129 133 133 133 130 127 133 135 133 133 131 127 121 115 121 135 138 132 122 121 127 126 127 124 116 124 119 103 93 87 89 90 87 82
340 281 105 93 109 137 183 131 141 157 147 159 151 135 138 140 127 115 127 136 134 130 133 136 138 142 143 144 143 140 141 140 139 139 139 139 137 135 134 135 137 138 138 137 134 132 136 128 120 121 118 122 126 123 123 126 127 126 127 133 131 128 121 122 131 131 129 131 133 137 133 128 130 128 127 128 132 137 137 133 133 135 136 136 136 135 131 126 124 118 108 101 89 86 95 90 88
306 311 68 106 115 128 169 127 136 148 144 154 154 147 142 141 132 119 136 142 135 135 137 140 141 143 144 143 141 141 142 140 138 138 137 136 135 135 134 135 138 137 136 135 133 132 132 130 125 122 121 124 125 124 119 119 120 119 126 130 121 118 124 124 124 125 126 130 131 133 134 133 134 134 135 137 137 135 132 135 139 143 142 140 140 138 134 130 122 116 106 102 96 87 94 87 83
279 304 28 98 111 121 174 146 142 137 144 155 160 152 138 148 152 128 144 146 139 142 142 143 144 144 145 142 141 144 142 138 138 137 137 136 136 138 136 135 137 134 134 135 134 133 132 132 131 130 128 125 126 129 124 117 118 123 127 127 123 125 128 124 121 125 126 128 132 132 131 132 133 136 136 134 132 131 133 139 142 146 144 142 141 137 138 132 121 130 128 117 101 84 91 90 88
331 253 80 104 109 127 178 166 156 148 151 151 157 158 144 159 174 143 150 150 145 146 146 148 147 145 146 143 141 144 143 138 138 139 139 140 140 140 138 138 138 135 135 137 136 134 133 132 131 131 129 129 133 130 126 123 124 128 128 128 134 129 124 125 126 128 129 134 136 131 128 131 137 138 132 130 131 133 138 143 145 146 143 139 139 140 143 132 118 132 126 109 92 88 94 85 95
245 198 121 159 136 142 180 175 163 160 151 141 153 160 159 170 159 149 155 150 147 150 151 151 148 148 148 145 144 145 146 144 143 144 142 141 142 141 141 142 139 136 136 138 137 134 134 133 131 131 132 131 131 129 127 127 126 125 126 131 133 125 123 129 127 129 136 138 136 135 136 138 141 137 130 131 135 138 138 140 141 143 144 141 144 141 129 123 126 127 112 95 85 98 99 71 100
248 208 157 191 173 154 185 180 161 160 152 150 168 168 165 176 151 152 157 150 150 154 156 155 151 151 152 151 150 150 150 151 149 146 142 142 142 141 141 141 139 137 137 138 139 138 137 135 132 133 133 129 129 131 128 127 127 124 127 131 127 124 128 128 127 130 133 136 137 138 138 138 140 138 134 132 136 138 135 138 138 142 146 140 146 140 118 122 137 136 131 119 98 101 103 73 94
196 216 192 213 232 122 174 184 166 164 168 168 196 193 162 177 172 163 162 157 153 156 159 160 156 152 155 156 154 153 153 155 152 146 144 143 141 141 140 140 139 139 139 140 141 140 139 137 135 138 136 134 134 132 129 128 126 126 130 132 128 127 130 128 128 130 129 135 138 136 138 139 141 143 137 128 130 137 133 137 137 145 144 133 152 145 129 143 142 135 139 130 110 107 109 92 92
203 275 220 217 213 128 174 195 182 173 174 179 204 191 137 181 197 173 168 165 156 159 162 162 162 157 155 157 156 156 155 155 153 148 146 144 142 141 141 141 141 142 141 141 143 141 141 140 138 141 139 136 136 134 133 130 128 132 134 134 131 128 130 131 131 131 132 136 139 138 140 139 140 145 137 127 128 133 134 140 143 147 135 124 154 137 126 152 157 157 148 115 127 115 106 118 108
272 311 309 286 195 154 170 191 196 187 172 182 211 168 116 247 222 184 172 171 161 161 164 164 165 160 156 158 158 158 156 154 153 150 147 145 144 143 143 143 141 143 143 142 144 143 144 142 140 140 141 139 140 141 138 134 136 136 133 132 131 129 131 132 132 134 136 138 142 144 142 139 143 146 140 132 126 127 136 134 133 135 125 132 148 129 133 157 155 169 153 118 131 108 90 127 124
248 154 26 309 250 166 162 163 206 206 182 180 186 155 147 225 207 183 174 174 169 166 166 167 165 161 161 160 159 159 158 157 155 152 150 147 147 145 145 144 142 143 144 145 145 145 145 143 143 145 145 143 143 144 137 136 140 132 129 135 130 128 131 132 133 136 136 137 144 149 144 142 148 148 149 139 120 122 138 123 125 134 132 134 127 124 148 151 146 159 161 154 153 124 90 122 129
297 290 79 261 238 199 174 160 185 191 188 184 175 168 184 201 191 177 176 177 175 171 168 170 167 164 167 164 161 161 162 161 158 156 153 150 148 148 147 146 145 144 145 147 145 146 146 145 149 148 146 148 149 148 139 139 140 130 133 139 132 132 134 134 135 134 135 138 148 154 146 147 154 151 153 143 127 132 136 122 131 130 127 125 118 136 149 152 159 149 161 179 168 154 132 121 132
309 327 283 186 193 183 156 154 175 179 184 188 184 180 169 178 181 172 171 177 181 174 169 173 169 168 173 172 165 162 166 163 159 160 155 152 152 151 151 150 149 147 147 149 148 149 149 149 154 150 150 157 156 151 142 140 140 135 141 142 136 138 138 138 135 134 136 136 146 154 150 152 155 151 148 143 141 137 124 131 141 119 113 124 115 127 138 152 160 146 160 168 164 178 157 153 168
283 354 287 217 125 118 140 151 174 186 188 180 181 188 166 159 168 181 176 172 179 177 175 177 172 175 179 175 168 164 168 165 161 162 157 155 155 152 153 153 151 150 150 152 152 154 153 154 156 154 156 162 157 150 145 146 147 145 147 146 144 143 143 143 139 138 138 140 153 152 146 153 152 150 145 143 145 133 125 152 152 128 127 146 139 148 159 165 160 154 165 155 155 188 175 182 184
301 26 260 338 72 129 146 150 167 195 207 167 168 184 182 159 162 213 199 175 181 183 179 180 175 179 183 178 172 167 168 166 162 162 161 159 157 155 156 157 156 154 155 156 156 157 156 158 159 158 161 162 158 155 151 152 153 150 149 149 149 148 148 146 143 143 142 155 163 148 146 168 161 147 148 148 137 125 132 159 146 137 142 159 155 151 156 160 156 154 154 151 159 182 188 196 175
17 2 235 45 97 142 137 162 167 180 239 165 172 182 182 182 210 228 209 181 184 187 181 183 181 180 184 183 175 171 171 168 166 166 167 164 159 158 158 160 160 158 159 160 160 161 159 161 162 163 166 164 162 162 155 155 155 151 151 151 150 152 151 148 149 148 147 160 162 151 159 173 160 144 144 136 127 136 156 140 129 149 147 146 146 143 149 151 150 144 132 152 165 174 196 209 180
43 356 325 56 149 167 131 191 175 174 233 178 170 183 167 186 246 264 263 229 193 186 184 181 187 187 186 188 178 176 176 171 171 171 170 168 163 162 161 163 164 161 164 164 164 165 163 167 167 167 170 166 168 168 158 157 161 155 152 152 152 156 156 153 155 154 155 163 166 167 168 158 145 148 156 150 165 188 165 141 138 174 149 140 140 137 133 128 136 141 136 151 161 171 183 185 180
63 54 312 321 172 191 114 169 172 176 225 171 163 197 186 187 213 219 270 254 204 184 188 180 189 193 189 191 182 181 181 175 176 173 172 172 167 166 164 164 167 165 168 168 168 168 167 171 171 170 172 168 174 174 163 165 169 162 159 159 158 161 163 163 164 166 166 169 175 177 176 162 148 158 186 181 193 199 166 157 153 157 158 141 131 111 120 129 135 144 150 150 152 161 159 145 144
61 143 238 299 173 169 127 139 151 181 204 187 190 217 206 186 203 197 220 238 206 189 195 187 189 192 192 194 184 183 184 179 180 175 174 175 171 170 166 167 169 168 171 171 170 171 169 173 173 173 175 171 176 178 172 173 173 169 167 167 166 166 170 174 172 173 173 173 182 177 177 182 160 162 190 185 194 196 181 177 150 144 182 146 137 144 144 124 107 126 166 160 157 159 153 150 162
243 181 237 317 341 166 150 152 162 213 205 185 203 219 206 178 201 205 201 213 209 199 200 195 193 191 193 197 187 184 185 183 184 179 177 177 173 173 170 171 173 170 172 172 171 172 170 174 174 174 177 174 177 182 181 179 176 175 175 172 174 173 174 179 176 175 175 171 179 177 175 185 171 169 195 198 207 210 187 177 155 150 172 180 161 157 136 89 127 183 195 172 167 164 159 155 158
233 148 229 301 330 140 211 186 174 208 180 160 202 210 204 200 208 206 200 209 211 203 201 199 197 193 193 196 190 187 186 185 185 181 180 178 176 177 174 175 176 171 172 172 172 172 170 176 176 174 178 177 179 185 187 185 182 182 179 176 181 181 178 182 178 174 175 169 171 174 173 188 183 178 201 211 210 207 186 181 174 159 164 193 194 164 155 180 203 215 201 179 175 164 163 160 156
176 119 219 272 296 287 271 223 170 182 187 165 195 201 199 217 211 202 198 208 213 205 203 202 198 195 194 197 194 189 187 187 187 183 182 180 178 179 177 178 178 174 172 172 173 173 171 176 177 176 179 179 183 189 190 189 189 187 183 180 182 183 180 183 180 176 179 174 174 178 172 182 200 195 202 211 206 205 199 192 188 170 167 188 195 183 193 199 211 221 195 183 182 179 186 182 191
104 130 228 249 269 287 293 254 170 152 220 211 192 192 198 208 187 197 198 209 215 207 205 205 203 199 195 195 196 192 188 188 189 186 184 182 179 179 179 179 178 176 173 172 173 173 172 176 179 180 181 180 185 191 192 193 195 193 188 184 185 184 179 180 182 181 185 183 181 190 186 182 197 206 207 215 213 207 207 199 195 191 176 195 212 201 200 215 241 241 205 213 201 203 209 194 222
153 200 238 239 262 309 318 280 228 172 222 230 198 191 189 183 187 192 197 212 214 206 204 204 209 208 199 196 198 195 190 189 190 188 185 183 181 180 179 179 178 176 174 172 174 173 174 177 180 183 183 182 187 192 192 194 197 199 195 189 189 187 182 182 185 187 193 191 184 193 203 196 193 200 210 225 220 208 215 205 188 201 199 201 224 209 192 225 244 170 200 243 252 233 214 199 230
217 238 249 243 258 300 297 273 252 236 242 225 198 191 188 206 195 191 202 212 202 195 205 209 213 213 203 198 201 198 192 190 190 189 186 185 185 182 180 181 177 176 175 175 175 175 176 178 182 186 186 185 189 192 192 194 196 200 201 197 195 192 189 191 193 195 197 194 189 194 203 205 200 197 208 224 211 198 218 215 185 197 212 204 213 210 200 214 217 194 204 238 261 258 248 231 237
218 236 240 234 250 267 269 271 267 256 241 189 193 186 196 234 172 173 187 191 181 185 200 203 204 207 203 199 201 199 194 190 190 190 187 185 186 185 182 181 178 177 179 178 177 177 178 181 185 189 190 188 191 193 193 195 195 198 202 202 203 201 196 196 199 202 202 198 198 203 206 209 208 201 206 218 207 198 215 221 200 203 217 212 207 212 211 210 209 209 216 229 233 243 256 245 246
208 216 228 234 240 247 273 318 292 265 233 266 215 183 188 235 157 162 176 181 189 193 199 199 195 197 199 201 202 199 194 191 190 189 189 186 185 187 184 181 180 180 181 180 179 180 179 182 186 190 194 194 193 194 195 197 196 197 201 202 206 209 206 204 203 204 208 207 204 207 209 212 213 210 209 209 207 205 212 223 222 218 225 226 217 219 222 217 215 216 220 231 234 240 248 244 246
212 224 227 242 237 229 297 331 285 283 275 289 266 208 179 169 174 182 172 174 186 191 189 189 191 193 197 200 201 201 197 192 190 189 190 188 186 186 186 183 182 183 184 182 181 182 181 183 187 190 196 200 198 197 197 199 197 197 201 201 202 207 209 210 209 206 209 212 212 211 210 209 210 212 211 208 208 206 204 219 232 228 229 234 228 226 231 229 226 220 221 232 235 235 242 249 248
210 215 221 243 228 198 232 271 304 326 255 272 271 225 61 142 167 176 175 171 163 173 180 171 174 189 199 200 196 199 201 194 189 189 191 191 187 186 186 186 185 185 187 186 184 184 184 185 188 192 197 201 203 203 202 202 200 199 202 202 201 204 206 208 211 212 211 211 212 214 216 214 209 209 210 211 214 212 207 215 228 230 233 237 232 232 234 231 234 232 231 236 233 232 245 252 247
198 201 222 238 208 204 235 270 314 306 249 288 293 165 57 195 168 137 308 183 97 50 1 141 154 173 186 198 197 194 198 199 194 189 190 191 188 185 187 188 187 187 188 188 186 186 187 188 190 194 197 198 202 207 206 204 203 202 205 206 203 205 207 207 210 214 214 214 214 214 218 219 216 215 214 215 219 221 219 216 217 224 235 240 235 235 235 231 237 240 242 246 240 233 242 248 245
178 207 227 226 185 205 232 241 271 263 241 274 330 333 262 211 172 67 5 345 46 54 37 118 141 157 165 183 189 179 190 202 206 198 191 189 187 186 187 188 188 188 188 188 188 188 190 192 193 195 197 197 200 204 205 206 206 206 207 210 208 207 209 210 211 215 215 216 218 218 218 219 219 218 216 215 216 222 229 227 220 216 223 234 235 235 237 239 244 241 241 250 250 242 243 248 251
215 232 221 214 214 206 206 223 258 275 259 202 77 20 306 345 2 2 18 344 350 30 36 94 135 145 148 161 160 158 185 197 207 219 205 188 186 188 186 189 190 187 187 188 188 191 193 194 195 196 199 199 200 200 202 205 207 207 209 212 213 210 210 212 213 215 216 217 219 220 220 218 218 218 217 216 213 214 224 231 230 222 220 229 234 231 233 241 246 243 238 245 251 254 255 253 254
226 240 222 218 242 240 218 225 234 240 280 266 99 84 287 19 5 293 50 357 334 19 24 21 78 126 139 148 155 161 175 185 201 224 217 190 186 189 186 190 192 187 187 188 190 193 195 195 197 200 201 200 200 201 202 204 205 207 209 212 215 215 214 215 216 217 218 219 220 221 222 221 219 219 221 222 219 217 220 225 230 228 223 228 233 231 232 238 245 246 238 237 241 252 263 261 255
223 228 224 217 229 240 224 221 225 217 266 269 126 121 243 178 281 312 40 55 350 30 56 49 62 117 139 142 154 162 166 175 193 215 211 187 186 192 189 192 195 189 187 189 191 193 196 197 197 202 204 201 200 200 202 204 205 207 209 210 214 217 217 218 219 221 222 223 223 223 223 223 222 221 221 224 225 224 223 224 226 227 224 227 230 230 231 235 246 254 248 238 231 233 248 256 255
238 232 233 229 222 227 227 213 213 220 244 263 254 127 147 189 275 328 7 63 60 27 86 114 93 105 132 141 152 158 163 176 183 187 185 178 185 194 192 193 198 196 189 189 192 192 196 199 197 203 207 204 203 202 203 209 209 207 210 213 214 217 219 221 222 224 226 227 227 227 226 225 225 225 222 223 227 227 227 226 227 229 229 229 230 231 232 230 238 251 255 248 238 235 246 253 253